[[{"header":{"parameterUnit":"m.s-1","parameterCategory":1,"la1":30.2991,"la2":30.254,"lo1":-89.0895,"lo2":-89.0444,"dy":0.0017,"dx":0.0017,"nx":28,"ny":28,"refTime":"2025-01-12T09:00:00:Z","depth":0,"parameterNumber":2,"parameterNumberName":"U-component_of_WINDS"},"data":[0,0,0,0,0,0,0,0,0,0,0,0,0,0,0,0,0,0,0,0,0,0,0,0,0,0,0,0,0,0,0,0,0,0,0,0,0,0,0,0,0,0,0,0,0,0,0,0,0,0,0,0,0,0,0,0,0,0,-2.6289,-2.629,0,-2.6414,-2.6415,-2.6417,-2.6415,-2.6413,-2.6411,-2.641,-2.6538,-2.6542,-2.6547,0,0,0,0,0,0,0,0,0,0,0,0,0,-2.6049,-2.6053,-2.6289,-2.629,-2.6292,-2.6413,-2.6415,-2.6417,-2.6415,-2.6413,-2.6411,-2.6409,-2.6536,-2.6542,-2.6548,0,0,0,0,0,0,0,0,0,0,0,0,0,-2.6161,-2.6054,-2.6289,-2.6306,-2.6308,-2.6413,-2.6415,-2.6417,-2.6415,-2.6413,-2.641,-2.6408,-2.6534,-2.6541,-2.6549,-2.6645,0,0,-2.6571,-2.6575,0,0,0,0,0,0,0,0,-2.6155,-2.617,-2.6302,-2.6305,-2.6308,-2.6396,-2.6377,-2.6494,-2.6416,-2.6375,-2.641,-2.6407,-2.6493,-2.6503,-2.6532,-2.6651,-2.6656,-2.6572,-2.6577,-2.658,-2.6582,0,0,0,0,0,0,0,-2.6147,-2.6165,-2.6338,-2.6303,-2.6307,-2.6307,-2.632,-2.6399,-2.6446,-2.6378,-2.6378,-2.6393,-2.6494,-2.6525,-2.6535,-2.6658,-2.6572,-2.6578,-2.6583,-2.6586,-2.686,-2.6863,0,0,0,0,0,0,-2.6136,-2.6158,-2.6334,-2.6342,-2.6224,-2.6313,-2.6328,-2.637,-2.6445,-2.6454,-2.6395,-2.6393,-2.6514,-2.6526,-2.654,-2.6656,-2.658,-2.6587,-2.6591,-2.6857,-2.6861,-2.6864,0,0,0,0,0,0,-2.613,-2.6151,-2.6329,-2.625,-2.6273,-2.632,-2.6368,-2.6374,-2.6405,-2.6458,-2.6466,-2.6418,-2.6512,-2.6529,-2.6618,-2.666,-2.659,-2.6597,-2.6854,-2.6858,-2.6862,-2.6889,0,0,0,0,0,0,-2.6124,-2.6149,-2.6186,-2.6251,-2.6277,-2.6406,-2.637,-2.6378,-2.6418,-2.6416,-2.6482,-2.6491,-2.6511,-2.6607,-2.6626,-2.6669,-2.6603,-2.685,-2.6856,-2.6861,-2.6885,-2.6894,-2.6902,0,0,0,0,0,-2.6115,-2.619,-2.6188,-2.621,-2.6324,-2.6408,-2.6423,-2.6445,-2.6421,-2.6459,-2.6493,-2.6489,-2.6653,-2.6616,-2.6637,-2.6684,-2.6848,-2.6854,-2.6861,-2.6881,-2.6892,-2.6902,0,0,0,0,0,0,-2.6129,-2.6198,-2.6198,-2.6295,-2.6346,-2.6408,-2.6456,-2.6457,-2.6515,-2.6511,-2.6536,-2.6551,-2.664,-2.6671,-2.6629,-2.678,-2.6747,-2.6758,-2.6756,-2.6767,-2.6775,-2.6765,-2.6609,0,0,0,0,0,-2.6143,-2.6206,-2.6263,-2.6344,-2.6369,-2.6408,-2.6446,-2.6458,-2.6512,-2.6533,-2.6574,-2.6625,-2.6689,-2.673,-2.6791,-2.689,-2.6904,-2.6932,-2.694,-2.6947,-2.6956,-2.7009,-2.7022,-2.6885,-2.6885,-2.6885,0,0,-2.6174,-2.622,-2.6258,-2.6348,-2.6388,-2.6452,-2.6426,-2.6495,-2.6542,-2.6544,-2.663,-2.6661,-2.6721,-2.6815,-2.6858,-2.6844,-2.6997,-2.6955,-2.696,-2.6965,-2.7017,-2.703,-2.7041,-2.6889,-2.6888,-2.6888,0,0,-2.6262,-2.6303,-2.6374,-2.6415,-2.6477,-2.6502,-2.6519,-2.6581,-2.6602,-2.6689,-2.6691,-2.6748,-2.6856,-2.6898,-2.6934,-2.7037,-2.7035,-2.7057,-2.71,-2.7152,-2.7163,-2.7172,-2.7208,-2.722,-2.7065,-2.7065,-2.7065,0,-2.6292,-2.6388,-2.6411,-2.6479,-2.6519,-2.6523,-2.6594,-2.6633,-2.6712,-2.6739,-2.6721,-2.6857,-2.6898,-2.7001,-2.7026,-2.7055,-2.7074,-2.7048,-2.7159,-2.7169,-2.7179,-2.7213,-2.7226,-2.7067,-2.7067,-2.7067,-2.7067,0,-2.6421,-2.6488,-2.6538,-2.6613,-2.6658,-2.6728,-2.6761,-2.6804,-2.6813,-2.684,-2.6928,-2.6977,-2.7047,-2.7073,-2.7083,-2.7177,-2.7166,-2.7154,-2.7121,-2.7193,-2.7226,-2.7239,-2.707,-2.707,-2.7069,-2.7069,0,0,-2.6521,-2.6607,-2.6625,-2.6659,-2.6727,-2.6779,-2.6849,-2.6918,-2.6953,-2.7008,-2.7066,-2.7158,-2.7147,-2.7187,-2.7202,-2.7247,-2.7324,-2.7229,-2.7231,-2.7244,-2.743,-2.7438,-2.7453,-2.7324,-2.7326,-2.7328,-2.7424,0,-2.6615,-2.6739,-2.6761,-2.6869,-2.693,-2.6935,-2.6996,-2.7044,-2.7071,-2.7127,-2.7157,-2.7221,-2.7202,-2.7226,-2.7272,-2.7305,-2.7361,-2.7299,-2.7377,-2.738,-2.7361,-2.747,-2.7479,-2.7567,-2.7437,-2.744,-2.7441,0,-2.6741,-2.6797,-2.6911,-2.697,-2.6997,-2.7051,-2.7115,-2.7169,-2.7224,-2.724,-2.7285,-2.7294,-2.7366,-2.7332,-2.7431,-2.7388,-2.7422,-2.7443,-2.7447,-2.7454,-2.7414,-2.7478,-2.7596,-2.7608,-2.7462,-2.746,-2.7459,0,-2.68,-2.6905,-2.6987,-2.7016,-2.7087,-2.7125,-2.7156,-2.7208,-2.7248,-2.7304,-2.733,-2.7394,-2.7429,-2.7478,-2.7504,-2.7477,-2.7602,-2.7569,-2.7616,-2.7616,-2.7641,-2.7639,-2.7764,-2.7666,-2.7665,-2.7665,-2.7665,0,-2.6902,-2.6971,-2.7014,-2.7064,-2.7141,-2.7166,-2.7242,-2.7273,-2.7319,-2.7375,-2.7384,-2.7436,-2.7467,-2.7524,-2.7545,-2.7623,-2.7639,-2.7654,-2.7658,-2.7653,-2.765,-2.7674,-2.7668,-2.7669,-2.7668,-2.7667,-2.7667,0,-2.6981,-2.7013,-2.7101,-2.7161,-2.7178,-2.7232,-2.7284,-2.7332,-2.7359,-2.7429,-2.7447,-2.749,-2.7557,-2.7588,-2.7671,-2.7685,-2.7774,-2.7775,-2.7755,-2.7756,-2.7801,-2.7796,-2.7944,-2.7965,-2.7854,-2.7855,-2.7856,0,-2.7043,-2.7096,-2.7162,-2.7199,-2.7232,-2.7293,-2.7333,-2.7359,-2.7401,-2.7467,-2.7507,-2.7574,-2.7629,-2.7736,-2.7774,-2.7837,-2.7839,-2.7887,-2.7849,-2.784,-2.7838,-2.7834,-2.7839,-2.7893,-2.7894,-2.7895,-2.7896,0,-2.715,-2.7162,-2.722,-2.7283,-2.733,-2.7381,-2.7431,-2.7462,-2.7496,-2.7542,-2.7611,-2.7653,-2.7738,-2.7804,-2.787,-2.7902,-2.7904,-2.7908,-2.7922,-2.7915,-2.7901,-2.7908,-2.7772,-2.7904,-2.7903,-2.7903,-2.7902,-2.7902,-2.7221,-2.7268,-2.7321,-2.7385,-2.7425,-2.7471,-2.7519,-2.7552,-2.7609,-2.768,-2.7692,-2.7764,-2.7817,-2.7906,-2.794,-2.7997,-2.7986,-2.8006,-2.8011,-2.8015,-2.8017,-2.7893,-2.8009,-2.8009,-2.8009,-2.8009,-2.8009,0,-2.7327,-2.7361,-2.7419,-2.7488,-2.7538,-2.7536,-2.7591,-2.7633,-2.7696,-2.7745,-2.7799,-2.7877,-2.7941,-2.7984,-2.8049,-2.8086,-2.8089,-2.8102,-2.8099,-2.8106,-2.8024,-2.8005,-2.8099,-2.8099,-2.8099,-2.8099,-2.8099,-2.8099,-2.7387,-2.7466,-2.7485,-2.7584,-2.7618,-2.7688,-2.7719,-2.7762,-2.7801,-2.7887,-2.794,-2.7968,-2.8014,-2.8083,-2.8141,-2.8152,-2.8175,-2.8188,-2.8199,-2.8121,-2.8112,-2.8103,-2.8085,-2.8194,-2.8194,-2.8276,-2.8276,-2.8277]},{"header":{"parameterUnit":"m.s-1","parameterCategory":1,"la1":30.2991,"la2":30.254,"lo1":-89.0895,"lo2":-89.0444,"dy":0.0017,"dx":0.0017,"nx":28,"ny":28,"refTime":"2025-01-12T09:00:00:Z","depth":0,"parameterNumber":3,"parameterNumberName":"V-component_of_WINDS"},"data":[0,0,0,0,0,0,0,0,0,0,0,0,0,0,0,0,0,0,0,0,0,0,0,0,0,0,0,0,0,0,0,0,0,0,0,0,0,0,0,0,0,0,0,0,0,0,0,0,0,0,0,0,0,0,0,0,0,0,-0.448,-0.448,0,-0.4479,-0.4479,-0.4479,-0.4513,-0.4514,-0.4515,-0.4516,-0.4513,-0.4512,-0.4511,0,0,0,0,0,0,0,0,0,0,0,0,0,-0.4511,-0.451,-0.448,-0.448,-0.448,-0.4479,-0.4479,-0.4479,-0.4513,-0.4514,-0.4515,-0.4516,-0.4513,-0.4512,-0.4511,0,0,0,0,0,0,0,0,0,0,0,0,0,-0.4502,-0.451,-0.448,-0.4497,-0.4498,-0.4479,-0.4479,-0.4479,-0.4513,-0.4514,-0.4515,-0.4517,-0.4514,-0.4512,-0.4511,-0.4475,0,0,-0.4507,-0.4506,0,0,0,0,0,0,0,0,-0.4503,-0.4501,-0.4494,-0.4496,-0.4497,-0.4498,-0.4489,-0.4477,-0.4512,-0.4507,-0.4516,-0.4517,-0.4507,-0.4506,-0.4503,-0.4475,-0.4475,-0.4507,-0.4506,-0.4505,-0.4505,0,0,0,0,0,0,0,-0.4503,-0.4501,-0.448,-0.4494,-0.4496,-0.4504,-0.4505,-0.4487,-0.4499,-0.4508,-0.451,-0.451,-0.4508,-0.4504,-0.4503,-0.4475,-0.4507,-0.4505,-0.4505,-0.4504,-0.4417,-0.4416,0,0,0,0,0,0,-0.4502,-0.4502,-0.448,-0.448,-0.4504,-0.4503,-0.4503,-0.4496,-0.4499,-0.4501,-0.4509,-0.4511,-0.4506,-0.4504,-0.4503,-0.446,-0.4505,-0.4504,-0.4503,-0.4418,-0.4417,-0.4415,0,0,0,0,0,0,-0.4502,-0.45,-0.448,-0.4491,-0.4489,-0.4501,-0.4493,-0.4495,-0.4492,-0.45,-0.4502,-0.4502,-0.4507,-0.4505,-0.4482,-0.4461,-0.4503,-0.4502,-0.442,-0.4418,-0.4416,-0.4375,0,0,0,0,0,0,-0.4503,-0.45,-0.4486,-0.4491,-0.4489,-0.4458,-0.4491,-0.4494,-0.4489,-0.4493,-0.4495,-0.4497,-0.4508,-0.4484,-0.448,-0.446,-0.4501,-0.4422,-0.4419,-0.4417,-0.4378,-0.4372,-0.4366,0,0,0,0,0,-0.4504,-0.4474,-0.4485,-0.4482,-0.4472,-0.4457,-0.4456,-0.447,-0.4487,-0.4474,-0.4479,-0.4497,-0.4464,-0.4481,-0.4478,-0.4456,-0.4423,-0.442,-0.4417,-0.4381,-0.4373,-0.4366,0,0,0,0,0,0,-0.4466,-0.4475,-0.4487,-0.4458,-0.4457,-0.4463,-0.4446,-0.4461,-0.4454,-0.4457,-0.4475,-0.4475,-0.4449,-0.445,-0.4469,-0.4421,-0.4447,-0.4443,-0.4421,-0.4413,-0.4407,-0.4407,-0.45,0,0,0,0,0,-0.4454,-0.4442,-0.4451,-0.4424,-0.4423,-0.4435,-0.4429,-0.444,-0.4438,-0.4438,-0.4442,-0.444,-0.4429,-0.4422,-0.4412,-0.4379,-0.438,-0.4363,-0.4357,-0.4352,-0.4348,-0.433,-0.4322,-0.4404,-0.4404,-0.4404,0,0,-0.443,-0.4433,-0.4424,-0.4417,-0.4417,-0.4403,-0.4434,-0.4418,-0.4408,-0.4435,-0.4413,-0.4416,-0.4415,-0.4387,-0.4375,-0.4388,-0.4326,-0.4348,-0.4344,-0.4342,-0.4326,-0.4318,-0.4311,-0.4402,-0.4402,-0.4403,0,0,-0.4378,-0.438,-0.4358,-0.4357,-0.4358,-0.4366,-0.436,-0.4365,-0.4368,-0.4347,-0.4367,-0.4355,-0.4337,-0.4335,-0.4331,-0.428,-0.4295,-0.4277,-0.4244,-0.4227,-0.422,-0.4215,-0.4195,-0.4188,-0.4273,-0.4273,-0.4272,0,-0.4347,-0.4327,-0.4344,-0.4327,-0.4323,-0.4348,-0.4326,-0.4325,-0.4321,-0.4318,-0.4333,-0.431,-0.4311,-0.4283,-0.427,-0.4267,-0.4261,-0.4276,-0.422,-0.4214,-0.4209,-0.4191,-0.4184,-0.427,-0.427,-0.4271,-0.4271,0,-0.4289,-0.4275,-0.4258,-0.4254,-0.4249,-0.4229,-0.4242,-0.4234,-0.4246,-0.4253,-0.423,-0.4233,-0.4224,-0.4219,-0.423,-0.4192,-0.42,-0.4217,-0.4243,-0.4199,-0.4182,-0.4175,-0.4267,-0.4268,-0.4268,-0.4269,0,0,-0.4211,-0.4219,-0.4212,-0.4211,-0.4213,-0.4203,-0.4184,-0.4177,-0.4169,-0.4167,-0.4151,-0.4135,-0.4151,-0.4148,-0.4159,-0.4144,-0.4102,-0.4163,-0.4163,-0.4151,-0.4059,-0.4045,-0.4037,-0.4113,-0.4112,-0.4111,-0.4059,0,-0.416,-0.4129,-0.4144,-0.4111,-0.4098,-0.4123,-0.4107,-0.4106,-0.4112,-0.4102,-0.4109,-0.4097,-0.412,-0.4118,-0.4104,-0.411,-0.4084,-0.4114,-0.4098,-0.4097,-0.4096,-0.4028,-0.4013,-0.3964,-0.4053,-0.4052,-0.4051,0,-0.4095,-0.4091,-0.4056,-0.4062,-0.4057,-0.4042,-0.4036,-0.4027,-0.4027,-0.4033,-0.4029,-0.4044,-0.4026,-0.4053,-0.4028,-0.4048,-0.4043,-0.4045,-0.4043,-0.4041,-0.407,-0.4023,-0.3949,-0.3941,-0.4041,-0.4042,-0.4042,0,-0.404,-0.4026,-0.4003,-0.4002,-0.4008,-0.3997,-0.3999,-0.4,-0.3995,-0.399,-0.3987,-0.398,-0.3975,-0.3969,-0.3982,-0.4001,-0.3955,-0.3983,-0.3958,-0.3958,-0.3946,-0.3947,-0.3869,-0.3945,-0.3945,-0.3945,-0.3945,0,-0.3981,-0.3958,-0.3979,-0.3965,-0.3941,-0.3959,-0.3934,-0.3939,-0.394,-0.3928,-0.3949,-0.3936,-0.3954,-0.3944,-0.3954,-0.3931,-0.3929,-0.3933,-0.3935,-0.393,-0.3929,-0.3925,-0.3928,-0.3943,-0.3944,-0.3944,-0.3944,0,-0.3914,-0.3927,-0.3904,-0.3912,-0.3914,-0.3896,-0.3902,-0.389,-0.3898,-0.3881,-0.3878,-0.3891,-0.3879,-0.3892,-0.3881,-0.3888,-0.3857,-0.3865,-0.3857,-0.3859,-0.3833,-0.3835,-0.3749,-0.3738,-0.3822,-0.3821,-0.3821,0,-0.3874,-0.3858,-0.3865,-0.3858,-0.3859,-0.3847,-0.3842,-0.386,-0.3853,-0.3853,-0.384,-0.383,-0.3823,-0.3804,-0.3811,-0.3803,-0.3811,-0.3781,-0.3809,-0.3805,-0.3809,-0.3809,-0.3807,-0.3775,-0.3774,-0.3773,-0.3773,0,-0.3802,-0.3809,-0.3801,-0.3796,-0.3789,-0.3785,-0.3783,-0.3776,-0.3794,-0.3786,-0.3775,-0.377,-0.3759,-0.3749,-0.3743,-0.3745,-0.3761,-0.3764,-0.3758,-0.3751,-0.3747,-0.3748,-0.384,-0.3765,-0.3766,-0.3767,-0.3767,-0.3767,-0.3747,-0.3733,-0.3736,-0.3726,-0.3727,-0.3725,-0.3713,-0.372,-0.3711,-0.3704,-0.3715,-0.3701,-0.3702,-0.3696,-0.3696,-0.3685,-0.3698,-0.3689,-0.3686,-0.3683,-0.3679,-0.375,-0.3684,-0.3685,-0.3685,-0.3685,-0.3685,0,-0.3674,-0.3678,-0.3669,-0.3665,-0.3658,-0.3676,-0.3674,-0.3666,-0.3654,-0.3654,-0.3647,-0.3634,-0.3625,-0.3632,-0.3625,-0.3614,-0.3621,-0.3611,-0.3611,-0.3611,-0.3669,-0.3675,-0.3606,-0.3606,-0.3606,-0.3606,-0.3606,-0.3606,-0.3635,-0.3614,-0.3622,-0.36,-0.3604,-0.359,-0.3588,-0.3586,-0.3586,-0.3571,-0.3564,-0.3569,-0.3572,-0.3565,-0.3557,-0.3559,-0.3555,-0.3542,-0.3547,-0.36,-0.3607,-0.3615,-0.362,-0.3541,-0.3541,-0.349,-0.349,-0.349]}]]